Location: Fernhill
(41.0167°S, 175.6333°E)
Time: 06:28:19
(UTC+00:00)

Cosmos 1937 Rocket - Pass Details

Date: 08 November 2025
Orbit: 743 x 774 km, 74.0° (Epoch: 11 December)

Event Time Altitude Azimuth Distance (km) Brightness Sun altitude
Rises 11:31:25 0° 202° (SSW) 3,266 7.8 -31.9°
Reaches altitude 10° 11:33:48 10° 204° (SSW) 2,337 6.8 -31.9°
Enters shadow 11:37:29 44° 219° (SW) 1,069 4.5 -32.0°
